sat.trackr.live / text

‹ back to catalog

STARLINK-2071

NORAD 47361 · 2021-005N

PAYLOAD ACTIVE UNKNOWN

§ Identity

Operator
Country
US
Launch date
2021-01-20
Launch site
AFETR
Launch vehicle
Mass (kg)
RCS (m²)

Purposes: comms

External: N2YO · Heavens-Above · Gunter

§ Orbital elements

Epoch: 2026-05-24T23:50:37.243104Z

Period
94.16 min
Inclination
53.1579°
Eccentricity
0.0001869
Mean motion
15.29385241 rev/d
Perigee alt
476.4 km
Apogee alt
478.9 km
Semi-major
6,855.8 km
B*
1.9245e-4
RAAN
42.2842°
Arg perigee
115.6302°
Mean anomaly
244.4892°
Rev number
29,506

§ Raw data

STARLINK-20711 47361U 21005N   26144.99348661  .00005206  00000+0  19245-3 0  99982 47361  53.1579  42.2842 0001869 115.6302 244.4892 15.29385241295062

JSON: /api/v1/satellites/47361 · /tle

For live sub-satellite position, see the globe view (requires WebGL).

§ Visibility from observer

Set your observer location to see the next 7 days of passes ≥ 10°. The values pass through the URL so the page stays shareable.

No JS? Fill the form by hand. The geolocation button needs JavaScript.